Weather History for Fort Campbell, KY

Change the Weather History Date:

Wednesday, September 4, 2013

  Actual Average Record
Temperature  
Mean Temperature 70 °F -  
Max Temperature 82 °F 84 °F 98 °F (1999)
Min Temperature 59 °F 62 °F 53 °F (2010)
Cooling Degree Days 5    
Growing Degree Days 20 (Base 50)    
Moisture  
Dew Point 63 °F    
Average Humidity 79    
Maximum Humidity 100    
Minimum Humidity 48    
Precipitation  
Precipitation 0.00 in - - ()
Sea Level Pressure  
Sea Level Pressure 30.11 in    
Wind  
Wind Speed 4 mph (North)    
Max Wind Speed 6 mph    
Max Gust Speed -    
Visibility 10 miles    
Events      
Averages and records for this station are not official NWS values.
T = Trace of Precipitation, MM = Missing Value Source: NWS Daily Summary

Daily Weather History Graph

Daily Weather History Graph

Search for Another Location

Airport:

Trip Planner

Search our weather history database for the weather conditions in past years. The results will help you decide how hot, cold, wet, or windy it might be!

Date:

Astronomy

Sep. 04, 2013 Rise Set
Actual Time 6:23 AM CDT 7:13 PM CDT
Civil Twilight 5:57 AM CDT 7:39 PM CDT
Nautical Twilight 5:26 AM CDT 8:10 PM CDT
Astronomical Twilight 4:54 AM CDT 8:42 PM CDT
Moon 5:35 AM CDT (9/4) 6:33 PM CDT (9/4)
Length of Visible Light 13h 42m
Length of Day
12h 49m
Waning Crescent, 1% of the Moon is Illuminated
Sep 4
Waning Crescent
Sep 5
New
Sep 12
First Quarter
Sep 19
Full
Sep 26
Last Quarter

Hourly Weather History & Observations

Time (CDT) Temp. Heat Index Dew Point Humidity Pressure Visibility Wind Dir Wind Speed Gust Speed Precip Events Conditions
12:58 AM 65.8 °F - 65.3 °F 98% 30.06 in 10.0 mi North 3.5 mph - N/A   Clear
1:58 AM 63.7 °F - 63.7 °F 100% 30.06 in 10.0 mi NNE 2.3 mph - N/A   Clear
2:58 AM 62.6 °F - 62.6 °F 100% 30.06 in 10.0 mi North 3.5 mph - N/A   Clear
3:58 AM 61.3 °F - 61.3 °F 100% 30.06 in 10.0 mi NNE 4.6 mph - N/A   Clear
4:58 AM 62.4 °F - 62.4 °F 100% 30.06 in 10.0 mi NW 1.2 mph - N/A   Clear
5:58 AM 59.2 °F - 59.2 °F 100% 30.08 in 10.0 mi North - - N/A   Clear
6:58 AM 59.4 °F - 59.4 °F 100% 30.10 in 8.0 mi NNE 2.3 mph - N/A   Clear
7:58 AM 64.8 °F - 64.8 °F 100% 30.13 in 10.0 mi NNE 1.2 mph - N/A   Clear
8:58 AM 68.9 °F - 65.8 °F 90% 30.14 in 10.0 mi Variable 2.3 mph - N/A   Clear
9:58 AM 73.6 °F - 65.8 °F 77% 30.15 in 10.0 mi NNE 2.3 mph - N/A   Clear
10:58 AM 75.6 °F - 62.4 °F 64% 30.16 in 10.0 mi NNE 5.8 mph - N/A   Clear
11:58 AM 77.7 °F - 61.9 °F 58% 30.14 in 10.0 mi ENE 3.5 mph - N/A   Partly Cloudy
12:58 PM 79.7 °F - 62.8 °F 56% 30.14 in 10.0 mi WNW 5.8 mph - N/A   Clear
1:58 PM 80.4 °F 81.4 °F 61.2 °F 52% 30.12 in 10.0 mi Variable 2.3 mph - N/A   Clear
2:58 PM 81.5 °F 82.4 °F 61.7 °F 51% 30.11 in 10.0 mi NNW 5.8 mph - N/A   Clear
3:58 PM 81.5 °F 82.1 °F 60.4 °F 49% 30.09 in 10.0 mi NNW 5.8 mph - N/A   Clear
4:58 PM 81.5 °F 82.0 °F 60.3 °F 48% 30.09 in 10.0 mi NNW 5.8 mph - N/A   Clear
5:58 PM 79.7 °F - 62.8 °F 56% 30.10 in 10.0 mi North 5.8 mph - N/A   Clear
6:58 PM 73.8 °F - 64.4 °F 72% 30.10 in 10.0 mi NNE 5.8 mph - N/A   Clear
7:58 PM 69.8 °F - 63.9 °F 81% 30.11 in 10.0 mi NNE 3.5 mph - N/A   Clear
8:58 PM 68.4 °F - 63.1 °F 83% 30.14 in 10.0 mi NE 4.6 mph - N/A   Clear
9:58 PM 68.2 °F - 62.6 °F 82% 30.14 in 10.0 mi Variable 3.5 mph - N/A   Clear
10:58 PM 65.7 °F - 61.9 °F 88% 30.14 in 10.0 mi North 4.6 mph - N/A   Clear
11:58 PM 64.2 °F - 61.2 °F 90% 30.16 in 10.0 mi North 4.6 mph - N/A   Clear